This demonstration page uses our WeatherBlox Daily Observations layout. Learn more.

Hourly Observations for January 30, 2017

Temp ( °F °C ) Dew Point ( °F °C ) Humidity (%) Winds ( mph kmh ) Pressure ( in mb ) Visibility ( mi km ) Precip ( " mm )
12:54 am 00:54 Clear 28 -2.2 25 -3.9 88 88 Calm 30.04 1017 10 16.0934 0 0
1:54 am 01:54 Clear 27 -2.8 24 -4.4 89 89 Calm 30.03 1017 10 16.0934 0 0
2:54 am 02:54 Clear 29 -1.7 26 -3.3 89 89 Calm 30.02 1017 10 16.0934 0 0
3:54 am 03:54 Clear 30 -1.1 26 -3.3 85 85 SW 5 7 29.98 1015 10 16.0934 0 0
4:54 am 04:54 Clear 31 -0.6 27 -2.8 85 85 WSW 9 15 29.96 1015 10 16.0934 0 0
5:54 am 05:54 Clear 31 -0.6 26 -3.3 82 82 WSW 7 11 29.95 1014 10 16.0934 0 0
6:54 am 06:54 Clear 31 -0.6 27 -2.8 85 85 WSW 5 7 29.94 1014 10 16.0934 0 0
7:54 am 07:54 Sunny 33 0.6 27 -2.8 78 78 Calm 29.94 1014 10 16.0934 0 0
8:54 am 08:54 Sunny 35 1.7 30 -1.1 82 82 SSW 3 6 29.93 1014 10 16.0934 0 0
9:54 am 09:54 Sunny 39 3.9 32 0 76 76 WSW 5 7 29.92 1013 10 16.0934 0 0
10:54 am 10:54 Sunny 46 7.8 31 -0.6 56 56 W 10 17 29.91 1013 10 16.0934 0 0
11:54 am 11:54 Sunny 53 11.7 31 -0.6 43 43 WNW 14 22 29.89 1012 N/A 0 0
12:54 pm 12:54 Sunny 59 15 31 -0.6 35 35 WNW 16 26 29.88 1012 10 16.0934 0 0
1:54 pm 13:54 Sunny 60 15.6 27 -2.8 28 28 NW 18 30 29.88 1012 10 16.0934 0 0
2:54 pm 14:54 Sunny 59 15 24 -4.4 26 26 NW 28 44 29.89 1012 10 16.0934 0 0
3:54 pm 15:54 Sunny 58 14.4 24 -4.4 27 27 WNW 18 30 29.9 1013 10 16.0934 0 0
4:54 pm 16:54 Sunny 55 12.8 25 -3.9 31 31 WNW 10 17 29.91 1013 10 16.0934 0 0
5:54 pm 17:54 Clear 50 10 25 -3.9 38 38 WNW 12 19 29.92 1013 10 16.0934 0 0
6:54 pm 18:54 Clear 46 7.8 25 -3.9 44 44 WSW 6 9 29.93 1014 10 16.0934 0 0
7:54 pm 19:54 Clear 43 6.1 26 -3.3 51 51 W 5 7 29.93 1014 10 16.0934 0 0
8:54 pm 20:54 Clear 38 3.3 25 -3.9 60 60 SW 5 7 29.93 1014 10 16.0934 0 0
9:54 pm 21:54 Clear 44 6.7 25 -3.9 47 47 WNW 14 22 29.93 1013 10 16.0934 0 0
10:54 pm 22:54 Clear 44 6.7 24 -4.4 45 45 NW 16 26 29.92 1013 10 16.0934 0 0
11:54 pm 23:54 Clear 43 6.1 24 -4.4 47 47 NW 10 17 29.94 1014 10 16.0934 0 0

Powered by AerisWeather